Tracking 19794 objects as of 21-Jul-2019
HD Live streaming from Space Station
objects crossing your sky now

FENGYUN 1C DEB

Track FENGYUN 1C DEB now!
10-day predictions


NORAD ID: 41014
Int'l Code: 1999-025EXU
Perigee: 654.1 km
Apogee: 757.9 km
Inclination: 98.9 °
Period: 98.7 minutes
Semi major axis: 7077 km
RCS: Unknown
Launch date: May 10, 1999
Source: People's Republic of China (PRC)
Launch site: Taiyaun Space Center, China (TSC)

Note: This is SATELLITE DEBRIS
aabbcc
Your satellite tracking list
Your tracking list is empty




NASA's NSSDC Master Catalog

Two Line Element Set (TLE):
1 41014U 99025EXU 19201.50973084  .00000971  00000-0  21444-3 0  9999
2 41014  98.8752  89.8845 0073329  44.9742 315.7362 14.58231653283904
Source of the keplerian elements: AFSPC